COSMOS 1961

Satellite information

Favourite Embed

Satellite Type and Status

PAYLOADIN ORBIT

Key statistics

Satellite COSMOS 1961 at a glance.

Uptime

13434

Days in orbit

Revolutions

≈ 1.0

Per day

Orbit

OTHER

Other

Inclination

12.0

Latest

Satellite identification and parameters

Extended collection of information and parameters for COSMOS 1961.

Object identification

Identified? True

Debris? False

Object name: COSMOS 1961

International designator: 1988-066A

Object number (NORAD): 19344

Object ID (CCSDS): 19344

Country: COMMONWEALTH OF INDEPENDENT STATES (CIS)

Current information (Y/N): Y

RCS size: LARGE

Orbital parameters

Period: 1436.015 minutes

Inclination: 11.971 deg

SMA: 42163.126 km

Apoapsis: 35805.925 km

Periapsis: 35764.057 km

RAAN: 332.3767 deg

Eccentricy: 0.0004965

Argument of periapsis: 136.7369 deg

Mean anomaly: 230.43 deg

Mean motion: 1.00277513 rev/day

Mean motion (dot): -0.00000055 rev/day2

B* drag term: 0.0 1/REarth

Two-line elements (TLE)

Creation date: May 12, 2025, 7:41 p.m.

Reference frame: TEME

Reference center: EARTH

Epoch: May 12, 2025, 2:36 a.m. UTC

TLE line 0: 0 COSMOS 1961

TLE line 1: 1 19344U 88066A 25132.10873939 -.00000055 00000-0 00000-0 0 9993

TLE line 2: 2 19344 11.9710 332.3767 0004965 136.7369 230.4300 1.00277513134996

Live tracking on map

Real-time ground track for satellite COSMOS 1961.

In-orbit conjunctions

A list of the most updated potential collisions computed for object COSMOS 1961.

Target Orbit TCA Probability of collision Miss distance Type
COSMOS 1897 OTHER 2025-03-25 08:58:49 TBA 3697.0 (m) PAYLOAD
SL-12 R/B(2) GEO 2025-03-11 07:44:13 TBA 3147.0 (m) ROCKET BODY
LUCH 1 OTHER 2024-11-28 18:28:25 TBA 3173.0 (m) PAYLOAD
MOLNIYA 1-S GEO 2024-11-07 03:09:33 TBA 3271.0 (m) PAYLOAD

Associated space launch

Geostationary military relay satellite

COSMOS 1961 was lifted into orbit during the mission ‘Proton | Potok 5’, on board a Proton space rocket.

The launch took place on Aug. 1, 1988, 9:04 p.m. from 200/39 (200L).

For more information about the launch, click the button.

Launch to space Proton | Potok 5
Proton | Potok 5

Agency: N/A

Status: Launch Successful

Launch date: Aug. 1, 1988, 9:04 p.m. UTC

Rocket: Proton

Launch pad: 200/39 (200L)

Location: Baikonur Cosmodrome, Republic of Kazakhstan

...

Latest news about this satellite

There are no fresh news available about this satellite. Check back as we update our databases every day.


Newsletter sign-up

Weekly statistics, charts and insights to help you stay on top of the space industry.